SCP
-0 -0 -0 0 0 0 -0 0 -0 0 -0 0 0 0 0 0 0 0 0 0 0 0 0 0 0 0 0 0 0 0 0 0 0 0 0 0 0 0
-0 0 -0 -0 -0 0 0 -0 0 0 -0 0 0 0 0 0 0 0 0 0 0 0 0 0 0 0 0 0 0 0 0 0 0 0 0 0 0 0
0 -0 -0 -0 -0 0 0 0 0 0 -0 -0 0 0 0 0 0 0 0 0 0 0 0 0 0 0 0 0 0 0 0 0 0 0 0 0 0 0
-0 -0 -0 -0 0 0 -0 0 -0 0 0 0 -0 -0 1 0 0 0 0 0 0 0 0 0 0 0 0 0 0 0 0 0 0 0 0 0 0 0
0 -0 0 0 0 0 -0 0 0 0 0 0 0 0 0 1 0 0 0 0 0 0 0 0 0 0 0 0 0 0 0 0 0 0 0 0 0 0
0 0 0 0 0 0 0 0 0 0 0 0 0 0 1 1 1 0 1 1 0 0 0 0 0 0 0 0 0 0 0 0 0 0 0 0 0 0
0 0 0 0 0 0 0 0 0 0 0 1 0 1 1 1 1 1 1 1 1 1 0 0 0 0 0 0 0 0 0 0 0 0 0 0 0 0
0 0 0 0 0 0 0 0 0 0 0 1 1 1 1 1 0 0 1 1 0 0 0 0 0 0 0 0 0 0 0 0 0 0 0 0 0 0
1 0 1 1 0 0 0 0 0 0 0 0 0 0 0 0 0 0 0 0 0 0 0 0 0 0 0 0 0 0 0 0 0 0 0 0 0 0
1 1 1 1 0 0 0 0 0 0 0 0 0 0 0 0 0 0 0 0 0 0 0 0 0 0 0 0 0 0 0 0 0 0 0 0 0 0
1 0 1 0 0 0 0 0 0 0 0 0 0 0 0 0 0 0 0 0 0 0 0 0 0 0 0 0 0 0 0 0 0 0 0 0 0 0
0 0 0 0 0 0 0 0 0 0 0 0 0 0 0 0 0 0 0 0 0 0 0 0 0 0 0 0 0 0 0 0 0 0 0 0 0 0
0 0 0 0 0 0 0 0 0 0 0 0 0 0 0 0 0 0 0 0 0 0 0 0 0 0 0 0 0 -0 0 0 0 0 0 0 -0 -0
0 0 0 0 0 0 0 0 0 0 0 0 0 0 0 0 0 0 0 0 0 0 0 0 0 0 0 0 0 0 0 0 0 0 0 0 0 0
0 0 0 0 0 0 0 0 -0 0 0 0 0 0 0 0 0 0 0 0 0 0 0 0 0 0 0 0 0 0 0 0 0 0 0 0 0 0
0 0 0 0 0 0 0 0 0 0 0 0 0 0 0 0 0 0 0 0 0 0 0 0 0 0 0 0 0 0 0 0 0 0 0 0 0 0
0 0 0 0 0 0 0 0 0 0 0 0 0 0 0 0 0 0 0 0 0 0 0 0 0 0 0 0 0 0 0 0 0 0 0 0 0 0
0 0 0 0 0 0 0 0 0 0 0 0 0 0 0 0 0 0 0 0 0 0 0 0 0 0 0 0 0 0 0 0 0 0 0 0 0 0
0 0 0 0 0 0 0 0 0 0 0 0 0 0 0 0 0 0 0 0 0 0 0 0 0 0 0 0 0 0 0 0 0 0 0 0 0 0
0 0 0 0 0 0 0 0 0 0 0 0 0 0 0 0 0 0 0 0 0 0 0 0 0 0 0 0 0 0 0 0 0 0 0 0 0 0
0 0 0 0 0 0 0 0 0 0 0 0 0 0 0 0 0 0 0 0 0 0 0 0 0 0 0 0 0 0 0 0 0 0 0 0 0 0
0 0 0 0 0 0 0 0 0 0 0 0 0 0 0 0 0 0 0 0 0 0 0 0 0 0 0 0 0 0 0 0 0 0 0 0 0 0
0 0 0 0 0 0 0 0 0 0 0 0 0 0 0 0 0 0 0 0 0 0 0 0 0 0 0 0 0 0 0 0 0 0 0 0 0 0
Wind_Speed_500mb
11 11 12 9 13 13 9 12 13 22 14 3 7 9 4 19 6 9 22 21 17 16 16 17 20 22 21 16 9 2 10 10 9 9 10 11 12 14
11 17 10 8 13 15 13 13 17 14 26 13 14 8 15 18 17 18 23 21 15 17 18 16 19 21 17 15 11 6 6 9 12 14 16 18 19 20
15 14 13 14 9 10 14 11 13 16 21 22 17 25 22 15 15 15 16 16 16 18 17 16 16 17 15 13 10 9 9 10 12 14 17 19 21 23
13 14 16 13 16 18 12 14 14 16 15 20 14 19 23 21 17 14 4 9 28 23 19 17 16 17 14 13 12 10 10 11 13 15 17 18 20 22
20 17 27 19 17 20 14 16 15 14 15 21 20 23 21 16 13 16 12 14 24 23 25 19 17 17 17 17 16 15 14 14 15 15 16 17 19 20
23 22 17 17 20 30 20 18 20 19 24 23 27 20 22 18 11 11 15 12 15 14 23 20 20 19 21 20 17 16 16 16 15 15 16 17 18 19
24 22 20 25 29 27 25 23 27 27 25 25 28 25 22 23 13 16 15 18 14 17 13 8 11 27 23 15 16 17 19 24 25 23 20 22 24 25
23 18 20 31 30 27 26 27 30 30 26 26 27 28 26 21 16 15 20 18 17 12 17 21 24 30 28 27 27 21 14 17 19 17 20 20 20 19
29 23 22 23 21 25 22 23 25 27 28 30 30 22 18 25 21 17 17 20 19 17 21 26 28 20 12 6 6 9 10 15 18 19 16 12 11 8
31 25 24 22 26 23 25 16 30 28 23 21 26 24 22 22 20 16 15 14 9 8 6 7 7 10 11 12 12 12 11 12 13 16 12 6 11 13
37 34 30 34 31 28 21 22 30 22 15 17 16 11 8 6 5 2 4 11 8 8 7 5 8 10 10 11 12 13 14 15 15 8 10 13 13 15
41 34 31 31 25 20 19 27 24 17 8 2 3 5 7 9 9 6 9 7 8 10 7 7 9 8 12 20 26 22 12 16 15 9 10 13 12 9
36 32 28 20 17 15 20 18 8 7 7 8 9 9 8 8 9 7 10 9 6 8 9 13 7 6 8 7 2 4 3 21 22 17 12 11 8 7
37 31 24 18 17 15 14 12 15 11 14 8 6 5 5 6 7 7 8 8 10 3 9 18 5 5 8 6 6 7 5 8 11 21 24 36 21 11
26 22 18 21 24 24 21 18 20 26 14 11 10 6 1 1 9 14 16 16 21 13 8 3 2 8 7 6 7 8 13 7 21 14 24 31 25 17
33 30 25 25 28 27 29 23 20 20 20 10 15 4 3 1 3 2 2 3 2 11 22 21 13 8 5 4 9 8 10 11 15 15 21 26 24 21
28 26 26 23 25 23 19 20 18 19 21 17 11 10 7 4 3 2 3 4 3 3 6 11 23 15 12 16 6 10 14 14 15 22 24 20 24 26
22 24 24 23 19 20 20 22 26 23 18 17 15 10 8 6 2 3 5 5 4 3 4 10 13 11 13 14 4 12 12 14 18 22 22 21 18 10
18 18 19 20 20 19 19 18 19 18 22 13 12 9 7 6 7 5 5 6 6 5 7 10 12 13 12 13 13 15 14 22 19 20 20 20 21 19
15 15 16 17 19 19 19 17 13 19 15 12 10 9 8 8 7 8 6 7 8 6 6 10 9 18 11 13 17 18 15 18 23 24 21 21 21 27
18 17 17 17 18 18 17 17 17 17 16 13 10 10 9 9 8 6 7 12 10 8 10 14 13 25 13 16 19 15 26 31 28 29 19 22 23 21
16 16 17 17 18 18 19 19 17 18 16 12 11 9 10 8 5 3 1 2 5 9 10 14 17 16 17 19 23 23 25 23 31 26 27 22 22 25
19 18 17 18 19 19 18 17 13 13 12 13 10 10 8 8 4 1 2 5 4 11 8 18 20 20 21 24 22 22 26 23 28 31 27 40 36 30
Wind_Direction_500mb
278 281 274 271 290 290 288 284 287 311 325 113 330 268 16 272 262 340 298 336 340 343 339 348 357 356 359 8 34 180 216 226 239 252 261 269 276 282
281 255 259 288 284 288 296 278 291 283 292 327 315 329 276 297 302 297 285 310 316 332 337 328 340 349 356 356 356 335 281 267 268 271 273 274 276 280
260 288 286 286 273 289 250 288 285 290 276 293 325 317 316 299 271 277 314 338 328 321 328 327 325 337 343 349 347 333 314 299 292 292 293 293 292 291
269 247 260 276 283 295 275 271 276 279 273 286 287 298 285 306 292 291 271 285 279 299 313 313 311 314 316 327 331 327 321 316 311 305 299 295 291 292
257 264 254 254 267 264 276 274 300 293 284 290 295 287 310 299 286 307 300 253 258 296 303 296 298 303 299 300 309 302 304 309 307 304 302 301 300 299
259 261 252 259 268 272 264 264 279 271 282 282 281 296 299 285 266 282 296 301 273 281 290 314 315 296 286 284 296 300 297 298 298 300 301 304 307 308
242 253 263 247 255 270 279 281 284 287 289 291 295 293 291 299 296 301 290 285 271 242 253 267 311 303 316 316 306 300 299 298 298 298 300 310 307 306
259 241 254 269 261 268 274 283 284 283 289 296 300 293 289 289 301 301 287 267 265 251 230 233 247 273 292 309 314 304 304 300 299 300 302 310 312 311
243 243 244 254 261 274 285 292 283 278 284 291 293 284 285 285 299 303 299 294 283 270 261 253 250 281 311 332 350 331 330 319 313 311 315 319 324 345
242 238 238 247 252 262 281 266 267 297 293 284 287 295 291 289 291 298 298 305 300 295 301 291 292 315 330 334 336 349 357 346 325 324 324 3 9 355
229 248 255 261 273 276 267 244 269 300 296 286 293 303 319 332 358 61 301 310 316 328 338 336 355 346 1 6 358 347 345 354 354 356 8 7 346 343
242 245 242 254 256 262 237 236 262 285 278 291 68 45 30 41 45 95 58 26 352 6 348 58 35 29 7 355 355 358 0 19 1 2 355 343 335 350
228 224 229 234 239 232 211 224 232 211 139 88 58 63 62 56 39 55 106 99 70 71 88 77 15 308 336 330 29 16 286 336 353 351 341 345 322 300
199 204 195 196 194 188 181 168 142 125 93 96 95 81 58 52 46 31 55 66 158 136 110 103 32 40 13 353 19 345 347 299 350 331 311 338 329 282
197 182 174 164 154 149 147 142 132 117 131 128 147 116 195 314 38 14 25 48 37 44 51 137 48 92 17 358 335 341 350 314 324 309 309 313 317 301
173 163 156 149 144 144 138 135 139 142 151 179 125 149 62 74 33 105 137 72 303 359 4 11 12 58 31 354 353 339 341 328 332 319 318 312 283 318
149 153 156 155 158 155 156 155 150 163 159 147 130 159 153 235 124 102 102 97 115 36 14 357 350 11 10 15 24 344 332 327 317 309 326 315 304 279
174 172 164 158 155 152 153 157 157 159 156 148 151 152 183 186 183 102 83 101 94 57 13 6 4 8 275 301 355 5 355 332 326 325 329 316 325 333
160 161 160 162 163 153 149 146 138 134 131 159 159 160 162 146 121 121 92 87 68 54 24 25 16 11 347 337 338 337 357 350 341 334 331 326 317 305
159 166 169 163 153 149 148 152 153 139 141 147 153 160 156 146 131 111 96 97 67 42 22 5 0 359 337 326 314 310 306 360 343 329 322 316 312 315
163 159 156 160 158 154 150 148 147 155 160 155 155 153 146 125 121 135 59 63 77 24 10 353 324 345 10 325 312 322 329 316 332 332 324 326 325 320
166 157 157 166 157 158 158 160 166 164 166 157 157 151 151 147 136 124 101 10 357 353 350 348 337 336 322 315 313 317 320 330 341 344 337 331 314 305
167 165 171 166 161 153 158 158 162 165 174 179 178 182 199 216 179 232 292 302 306 340 340 348 339 326 315 309 305 308 319 317 319 312 318 322 316 304
Wind_Speed_850mb
11 11 12 9 13 13 9 12 13 22 14 3 7 9 4 19 6 9 22 21 17 16 16 17 20 22 21 16 9 2 10 10 9 9 10 11 12 14
11 17 10 8 13 15 13 13 17 14 26 13 14 8 15 18 17 18 23 21 15 17 18 16 19 21 17 15 11 6 6 9 12 14 16 18 19 20
15 14 13 14 9 10 14 11 13 16 21 22 17 25 22 15 15 15 16 16 16 18 17 16 16 17 15 13 10 9 9 10 12 14 17 19 21 23
13 14 16 13 16 18 12 14 14 16 15 20 14 19 23 21 17 14 4 9 28 23 19 17 16 17 14 13 12 10 10 11 13 15 17 18 20 22
20 17 27 19 17 20 14 16 15 14 15 21 20 23 21 16 13 16 12 14 24 23 25 19 17 17 17 17 16 15 14 14 15 15 16 17 19 20
23 22 17 17 20 30 20 18 20 19 24 23 27 20 22 18 11 11 15 12 15 14 23 20 20 19 21 20 17 16 16 16 15 15 16 17 18 19
24 22 20 25 29 27 25 23 27 27 25 25 28 25 22 23 13 16 15 18 14 17 13 8 11 27 23 15 16 17 19 24 25 23 20 22 24 25
23 18 20 31 30 27 26 27 30 30 26 26 27 28 26 21 16 15 20 18 17 12 17 21 24 30 28 27 27 21 14 17 19 17 20 20 20 19
29 23 22 23 21 25 22 23 25 27 28 30 30 22 18 25 21 17 17 20 19 17 21 26 28 20 12 6 6 9 10 15 18 19 16 12 11 8
31 25 24 22 26 23 25 16 30 28 23 21 26 24 22 22 20 16 15 14 9 8 6 7 7 10 11 12 12 12 11 12 13 16 12 6 11 13
37 34 30 34 31 28 21 22 30 22 15 17 16 11 8 6 5 2 4 11 8 8 7 5 8 10 10 11 12 13 14 15 15 8 10 13 13 15
41 34 31 31 25 20 19 27 24 17 8 2 3 5 7 9 9 6 9 7 8 10 7 7 9 8 12 20 26 22 12 16 15 9 10 13 12 9
36 32 28 20 17 15 20 18 8 7 7 8 9 9 8 8 9 7 10 9 6 8 9 13 7 6 8 7 2 4 3 21 22 17 12 11 8 7
37 31 24 18 17 15 14 12 15 11 14 8 6 5 5 6 7 7 8 8 10 3 9 18 5 5 8 6 6 7 5 8 11 21 24 36 21 11
26 22 18 21 24 24 21 18 20 26 14 11 10 6 1 1 9 14 16 16 21 13 8 3 2 8 7 6 7 8 13 7 21 14 24 31 25 17
33 30 25 25 28 27 29 23 20 20 20 10 15 4 3 1 3 2 2 3 2 11 22 21 13 8 5 4 9 8 10 11 15 15 21 26 24 21
28 26 26 23 25 23 19 20 18 19 21 17 11 10 7 4 3 2 3 4 3 3 6 11 23 15 12 16 6 10 14 14 15 22 24 20 24 26
22 24 24 23 19 20 20 22 26 23 18 17 15 10 8 6 2 3 5 5 4 3 4 10 13 11 13 14 4 12 12 14 18 22 22 21 18 10
18 18 19 20 20 19 19 18 19 18 22 13 12 9 7 6 7 5 5 6 6 5 7 10 12 13 12 13 13 15 14 22 19 20 20 20 21 19
15 15 16 17 19 19 19 17 13 19 15 12 10 9 8 8 7 8 6 7 8 6 6 10 9 18 11 13 17 18 15 18 23 24 21 21 21 27
18 17 17 17 18 18 17 17 17 17 16 13 10 10 9 9 8 6 7 12 10 8 10 14 13 25 13 16 19 15 26 31 28 29 19 22 23 21
16 16 17 17 18 18 19 19 17 18 16 12 11 9 10 8 5 3 1 2 5 9 10 14 17 16 17 19 23 23 25 23 31 26 27 22 22 25
19 18 17 18 19 19 18 17 13 13 12 13 10 10 8 8 4 1 2 5 4 11 8 18 20 20 21 24 22 22 26 23 28 31 27 40 36 30
Wind_Direction_850mb
278 281 274 271 290 290 288 284 287 311 325 113 330 268 16 272 262 340 298 336 340 343 339 348 357 356 359 8 34 180 216 226 239 252 261 269 276 282
281 255 259 288 284 288 296 278 291 283 292 327 315 329 276 297 302 297 285 310 316 332 337 328 340 349 356 356 356 335 281 267 268 271 273 274 276 280
260 288 286 286 273 289 250 288 285 290 276 293 325 317 316 299 271 277 314 338 328 321 328 327 325 337 343 349 347 333 314 299 292 292 293 293 292 291
269 247 260 276 283 295 275 271 276 279 273 286 287 298 285 306 292 291 271 285 279 299 313 313 311 314 316 327 331 327 321 316 311 305 299 295 291 292
257 264 254 254 267 264 276 274 300 293 284 290 295 287 310 299 286 307 300 253 258 296 303 296 298 303 299 300 309 302 304 309 307 304 302 301 300 299
259 261 252 259 268 272 264 264 279 271 282 282 281 296 299 285 266 282 296 301 273 281 290 314 315 296 286 284 296 300 297 298 298 300 301 304 307 308
242 253 263 247 255 270 279 281 284 287 289 291 295 293 291 299 296 301 290 285 271 242 253 267 311 303 316 316 306 300 299 298 298 298 300 310 307 306
259 241 254 269 261 268 274 283 284 283 289 296 300 293 289 289 301 301 287 267 265 251 230 233 247 273 292 309 314 304 304 300 299 300 302 310 312 311
243 243 244 254 261 274 285 292 283 278 284 291 293 284 285 285 299 303 299 294 283 270 261 253 250 281 311 332 350 331 330 319 313 311 315 319 324 345
242 238 238 247 252 262 281 266 267 297 293 284 287 295 291 289 291 298 298 305 300 295 301 291 292 315 330 334 336 349 357 346 325 324 324 3 9 355
229 248 255 261 273 276 267 244 269 300 296 286 293 303 319 332 358 61 301 310 316 328 338 336 355 346 1 6 358 347 345 354 354 356 8 7 346 343
242 245 242 254 256 262 237 236 262 285 278 291 68 45 30 41 45 95 58 26 352 6 348 58 35 29 7 355 355 358 0 19 1 2 355 343 335 350
228 224 229 234 239 232 211 224 232 211 139 88 58 63 62 56 39 55 106 99 70 71 88 77 15 308 336 330 29 16 286 336 353 351 341 345 322 300
199 204 195 196 194 188 181 168 142 125 93 96 95 81 58 52 46 31 55 66 158 136 110 103 32 40 13 353 19 345 347 299 350 331 311 338 329 282
197 182 174 164 154 149 147 142 132 117 131 128 147 116 195 314 38 14 25 48 37 44 51 137 48 92 17 358 335 341 350 314 324 309 309 313 317 301
173 163 156 149 144 144 138 135 139 142 151 179 125 149 62 74 33 105 137 72 303 359 4 11 12 58 31 354 353 339 341 328 332 319 318 312 283 318
149 153 156 155 158 155 156 155 150 163 159 147 130 159 153 235 124 102 102 97 115 36 14 357 350 11 10 15 24 344 332 327 317 309 326 315 304 279
174 172 164 158 155 152 153 157 157 159 156 148 151 152 183 186 183 102 83 101 94 57 13 6 4 8 275 301 355 5 355 332 326 325 329 316 325 333
160 161 160 162 163 153 149 146 138 134 131 159 159 160 162 146 121 121 92 87 68 54 24 25 16 11 347 337 338 337 357 350 341 334 331 326 317 305
159 166 169 163 153 149 148 152 153 139 141 147 153 160 156 146 131 111 96 97 67 42 22 5 0 359 337 326 314 310 306 360 343 329 322 316 312 315
163 159 156 160 158 154 150 148 147 155 160 155 155 153 146 125 121 135 59 63 77 24 10 353 324 345 10 325 312 322 329 316 332 332 324 326 325 320
166 157 157 166 157 158 158 160 166 164 166 157 157 151 151 147 136 124 101 10 357 353 350 348 337 336 322 315 313 317 320 330 341 344 337 331 314 305
167 165 171 166 161 153 158 158 162 165 174 179 178 182 199 216 179 232 292 302 306 340 340 348 339 326 315 309 305 308 319 317 319 312 318 322 316 304